Total_Precipitation_Accumulation
0.00 0.00 0.00 0.00 0.00 0.00 0.00 0.00 0.00 0.00 0.00 0.00 0.00 0.00 0.00 0.00 0.00 0.00 0.00 0.03 0.02 0.00 0.00 0.00 0.00 0.01 0.01 0.13 0.05 0.08 0.22 0.27 0.22 0.61 2.25 1.95 3.13 4.31 3.58 3.25 3.58 3.55 2.79 2.53 2.61 2.08 2.51 2.35 2.10 1.99 1.16 0.66 0.43 0.46 0.34 0.44 0.51 0.41 0.17 0.09 0.09 0.08 0.09 0.02 0.04 0.03 0.03 0.05 0.04 0.06 0.07 0.05 0.08 0.06 0.07 0.05 0.07 0.09 0.12 0.18 0.18 0.30 0.28 0.32 0.31 0.30 0.38 0.49 0.73 0.50 0.62 0.83 0.75 0.76 0.39 0.46 0.25
0.00 0.00 0.00 0.00 0.00 0.00 0.00 0.00 0.00 0.00 0.00 0.00 0.00 0.00 0.01 0.00 0.00 0.01 0.01 0.01 0.02 0.06 0.00 0.00 0.03 0.12 0.05 0.04 0.01 0.03 0.15 0.44 0.40 0.42 1.67 1.90 2.74 2.61 2.63 3.68 3.40 2.94 2.80 3.23 3.31 2.10 2.60 3.21 2.09 1.34 0.81 0.60 0.67 0.64 0.62 0.42 0.54 0.38 0.35 0.27 0.16 0.10 0.10 0.07 0.06 0.05 0.04 0.03 0.06 0.08 0.10 0.09 0.10 0.14 0.09 0.12 0.09 0.09 0.13 0.16 0.23 0.30 0.25 0.29 0.20 0.39 0.45 0.40 0.78 1.19 0.99 1.07 0.65 0.79 0.34 0.33 0.25
0.00 0.00 0.00 0.00 0.00 0.00 0.00 0.00 0.00 0.01 0.00 0.00 0.00 0.00 0.00 0.03 0.01 0.02 0.03 0.02 0.01 0.00 0.00 0.00 0.00 0.01 0.01 0.01 0.03 0.10 1.80 0.51 0.43 0.66 1.53 1.40 1.58 2.17 2.38 2.61 3.03 2.89 2.24 2.45 2.93 2.28 2.42 1.89 1.93 1.12 0.98 0.56 1.00 1.23 0.93 0.70 0.80 0.84 0.50 0.37 0.38 0.33 0.22 0.09 0.05 0.07 0.05 0.04 0.06 0.08 0.11 0.12 0.09 0.13 0.17 0.20 0.20 0.10 0.15 0.23 0.21 0.27 0.26 0.28 0.28 0.33 0.49 0.57 0.62 0.81 0.75 1.14 1.14 1.10 0.59 0.19 0.27
0.00 0.00 0.00 0.00 0.00 0.00 0.00 0.00 0.00 0.00 0.01 0.00 0.02 0.01 0.02 0.03 0.22 0.12 0.18 0.01 0.01 0.00 0.00 0.01 0.04 0.02 0.04 0.05 0.15 0.07 0.37 0.63 1.47 1.33 1.17 1.79 2.19 1.85 2.70 2.59 2.50 2.06 2.06 2.92 2.20 1.85 2.76 1.76 1.15 0.96 0.67 0.45 0.59 0.95 1.02 0.93 1.12 0.88 0.56 0.50 0.31 0.35 0.34 0.16 0.08 0.11 0.12 0.07 0.09 0.13 0.11 0.10 0.15 0.17 0.14 0.12 0.24 0.19 0.23 0.22 0.14 0.21 0.22 0.28 0.27 0.28 0.52 0.41 0.77 0.83 0.86 0.77 1.00 1.05 0.60 0.70 0.42
0.00 0.00 0.00 0.00 0.00 0.00 0.00 0.00 0.00 0.00 0.01 0.00 0.06 0.06 0.05 0.21 0.16 0.30 0.23 0.03 0.00 0.01 0.01 0.00 0.01 0.02 0.04 0.08 0.08 0.35 1.52 1.07 1.07 1.40 1.59 1.66 1.90 2.97 3.28 2.24 2.44 1.80 2.72 2.93 2.55 2.15 2.33 1.72 1.02 1.08 0.46 0.50 0.72 0.93 1.02 0.98 1.13 0.98 0.63 0.73 0.50 0.21 0.37 0.18 0.12 0.07 0.10 0.13 0.09 0.10 0.10 0.18 0.19 0.15 0.18 0.16 0.22 0.30 0.25 0.19 0.20 0.26 0.25 0.22 0.24 0.38 0.38 0.49 0.52 0.62 0.76 1.13 0.95 0.78 0.55 0.49 0.55
0.00 0.00 0.00 0.00 0.00 0.00 0.00 0.01 0.00 0.00 0.00 0.01 0.02 0.16 0.15 0.22 0.44 0.25 0.32 0.37 0.00 0.00 0.00 0.04 0.08 0.03 0.16 0.43 0.31 0.50 0.79 1.33 1.66 1.15 1.49 1.95 1.89 2.17 3.19 2.86 2.59 2.21 2.77 2.69 2.50 2.07 2.02 1.00 0.74 0.65 0.34 0.54 0.75 0.71 0.72 1.05 0.99 1.02 1.03 0.91 0.63 0.43 0.29 0.25 0.07 0.09 0.10 0.11 0.12 0.16 0.17 0.28 0.22 0.21 0.15 0.17 0.40 0.42 0.39 0.24 0.17 0.18 0.21 0.19 0.22 0.21 0.20 0.26 0.49 0.38 0.65 0.89 0.87 0.65 0.74 0.44 0.37
0.00 0.00 0.00 0.00 0.00 0.00 0.00 0.00 0.00 0.04 0.08 0.01 0.09 0.09 0.03 0.39 0.28 0.23 0.08 0.06 0.03 0.03 0.01 0.02 0.01 0.08 0.27 0.48 0.22 1.16 1.39 1.46 1.64 1.51 1.71 1.62 1.96 1.98 2.15 3.24 2.28 1.88 2.34 2.36 2.10 1.52 1.58 1.06 0.56 0.70 0.57 0.65 0.50 0.50 0.60 0.69 0.65 0.84 1.20 0.86 0.70 0.47 0.27 0.14 0.11 0.08 0.08 0.08 0.10 0.22 0.26 0.31 0.24 0.25 0.22 0.25 0.31 0.39 0.41 0.18 0.25 0.19 0.16 0.10 0.18 0.17 0.38 0.20 0.35 0.73 0.80 1.06 0.96 0.75 0.30 0.26 0.38
0.00 0.00 0.00 0.00 0.00 0.00 0.00 0.02 0.02 0.02 0.08 0.11 0.20 0.44 0.23 0.16 0.29 0.22 0.18 0.02 0.08 0.03 0.03 0.03 0.02 0.06 1.08 0.26 1.17 2.16 1.23 1.36 2.39 2.82 2.26 2.59 1.85 1.62 2.09 2.31 2.02 2.42 1.92 1.44 1.48 1.26 1.66 0.71 0.77 0.50 0.43 0.39 0.31 0.44 0.40 0.83 0.84 0.72 1.16 1.04 0.83 0.48 0.26 0.18 0.10 0.07 0.06 0.08 0.17 0.17 0.30 0.27 0.28 0.40 0.22 0.32 0.28 0.36 0.41 0.40 0.44 0.28 0.10 0.26 0.12 0.14 0.24 0.45 0.53 0.42 0.58 0.54 0.46 0.39 0.33 0.15 0.20
0.00 0.00 0.00 0.00 0.01 0.00 0.02 0.10 0.06 0.04 0.12 0.09 0.19 0.39 0.22 0.08 0.17 0.19 0.24 0.14 0.07 0.04 0.02 0.14 0.32 0.48 1.13 0.67 1.23 1.66 1.41 1.36 1.32 3.21 2.48 2.87 2.50 1.87 1.91 2.47 2.04 1.99 1.82 1.46 1.76 1.23 1.08 0.75 0.72 0.71 0.74 0.70 0.48 0.67 0.37 0.55 0.44 0.54 0.57 0.58 0.58 0.51 0.22 0.24 0.19 0.13 0.06 0.06 0.11 0.14 0.22 0.18 0.20 0.28 0.28 0.30 0.37 0.31 0.37 0.41 0.58 0.56 0.26 0.12 0.21 0.28 0.33 0.26 0.24 0.34 0.36 0.45 0.57 0.70 0.30 0.27 0.37
0.00 0.00 0.00 0.00 0.01 0.09 0.03 0.27 0.16 0.29 0.19 0.12 0.22 0.05 0.12 0.23 0.15 0.26 0.26 0.21 0.17 0.11 0.16 0.12 0.08 0.42 0.64 1.14 0.83 1.17 2.16 1.87 1.45 1.46 2.10 3.13 2.62 3.12 2.78 3.13 1.95 1.44 1.37 1.70 1.36 1.17 1.13 1.28 0.77 0.84 0.90 1.52 1.43 0.83 0.54 0.43 0.54 0.42 0.42 0.38 0.43 0.53 0.46 0.18 0.14 0.11 0.14 0.09 0.13 0.14 0.14 0.16 0.15 0.27 0.37 0.34 0.36 0.31 0.22 0.48 0.26 0.42 0.36 0.24 0.18 0.34 0.40 0.51 0.28 0.28 0.33 0.29 0.23 0.23 0.12 0.07 0.22
0.00 0.00 0.00 0.01 0.16 0.43 0.28 0.09 0.29 0.24 0.31 0.23 0.20 0.10 0.12 0.02 0.06 0.14 0.12 0.14 0.14 0.15 0.16 0.09 0.31 0.41 0.62 0.84 1.36 2.01 1.73 1.71 2.61 2.15 2.00 2.68 2.29 3.31 3.26 2.34 2.27 2.45 1.96 1.52 1.55 0.78 1.24 1.28 1.27 0.88 1.22 2.46 1.68 1.08 0.72 0.79 0.57 0.59 0.57 0.29 0.15 0.32 0.61 0.40 0.18 0.16 0.14 0.15 0.20 0.23 0.17 0.12 0.12 0.14 0.28 0.41 0.47 0.51 0.22 0.28 0.44 0.42 0.40 0.60 0.41 0.22 0.31 0.27 0.38 0.40 0.37 0.39 0.40 0.27 0.36 0.39 0.27
0.00 0.00 0.00 0.07 0.25 0.18 0.19 0.51 0.47 0.50 0.37 0.35 0.31 0.08 0.06 0.08 0.22 0.05 0.18 0.17 0.18 0.12 0.33 0.14 0.82 0.38 0.56 0.53 1.35 2.12 1.83 2.08 3.35 2.65 2.01 2.27 2.06 2.09 1.67 2.60 2.55 2.63 2.49 1.70 1.27 1.41 0.91 1.09 1.28 1.36 1.09 1.24 1.98 1.42 1.00 0.80 0.76 0.67 0.46 0.21 0.35 0.59 0.90 0.65 0.42 0.23 0.14 0.19 0.29 0.16 0.15 0.15 0.29 0.17 0.28 0.51 0.67 0.87 0.53 0.47 0.43 0.36 0.28 0.47 0.46 0.27 0.27 0.49 0.53 0.36 0.24 0.15 0.48 0.49 0.30 0.29 0.28
0.01 0.00 0.04 0.21 0.34 0.35 0.15 0.13 0.19 0.44 0.67 0.53 0.20 0.09 0.06 0.03 0.22 0.14 0.40 0.22 0.20 0.17 0.43 0.41 0.46 0.42 1.27 1.10 1.57 1.23 2.01 2.09 2.05 2.03 1.80 1.87 1.70 1.43 2.01 2.29 3.19 2.92 2.22 2.05 1.70 1.69 1.53 1.49 1.68 2.03 1.57 1.49 1.14 1.44 0.98 0.92 0.88 0.83 0.54 0.68 0.54 0.49 0.35 1.32 1.20 0.82 0.72 1.10 0.70 0.39 0.24 0.16 0.27 0.22 0.32 0.42 0.57 0.62 0.66 0.68 0.48 0.29 0.28 0.23 0.30 0.25 0.13 0.19 0.39 0.28 0.40 0.50 0.57 0.32 0.40 0.33 0.12
0.05 0.03 0.26 0.27 0.01 0.23 0.23 0.36 0.31 0.24 0.45 0.58 0.32 0.10 0.04 0.29 0.24 0.11 0.12 0.19 0.26 0.22 0.21 0.40 0.30 0.24 1.17 0.59 1.62 1.48 1.92 1.73 1.64 1.38 1.10 1.23 1.02 1.24 1.56 1.96 2.08 2.28 2.77 2.07 1.84 2.33 1.71 2.16 2.46 1.96 2.24 2.31 2.43 1.89 1.18 1.33 0.92 0.59 0.60 0.61 0.63 0.48 0.64 0.63 0.68 0.84 1.14 1.19 1.05 0.47 0.41 0.29 0.25 0.21 0.27 0.32 0.54 0.75 0.73 0.54 0.56 0.48 0.31 0.20 0.26 0.25 0.23 0.15 0.33 0.32 0.56 0.30 0.54 0.71 0.37 0.20 0.13
0.06 0.00 0.25 0.15 0.05 0.17 0.18 0.54 0.41 0.37 0.67 0.22 0.16 0.16 0.14 0.09 0.01 0.01 0.10 0.08 0.30 0.09 0.28 0.17 0.41 0.35 2.01 0.44 1.21 1.24 1.43 1.38 1.33 0.84 0.57 0.60 0.58 0.94 2.07 1.84 2.86 2.93 2.94 2.47 2.63 2.35 2.31 2.57 3.12 2.61 2.11 2.59 2.08 2.23 2.52 2.05 1.28 0.99 0.51 0.78 0.61 0.50 0.46 1.16 1.43 0.72 0.56 1.17 1.18 0.90 0.57 0.50 0.56 0.36 0.32 0.34 0.44 0.79 0.94 0.66 0.74 0.71 0.44 0.18 0.33 0.27 0.19 0.12 0.09 0.19 0.54 0.22 0.26 0.48 0.28 0.19 0.05
0.00 0.02 0.15 0.25 0.18 0.52 0.15 0.29 0.13 0.12 0.21 0.09 0.03 0.02 0.03 0.07 0.11 0.12 0.05 0.05 0.30 0.15 0.19 0.67 0.25 0.79 1.14 0.76 0.75 1.06 1.30 1.17 0.63 0.62 0.57 0.64 0.98 1.20 1.44 1.93 2.36 3.14 2.87 2.16 2.49 2.60 2.32 1.91 3.22 2.69 2.52 2.66 2.52 3.18 3.24 2.98 2.32 1.20 0.95 1.09 1.77 0.73 0.64 0.82 1.21 1.15 1.09 0.86 1.17 0.81 0.78 1.18 0.83 0.78 0.76 0.64 0.58 0.50 0.48 0.76 0.58 0.54 0.61 0.51 0.43 0.44 0.18 0.14 0.13 0.17 0.33 0.27 0.50 0.22 0.06 0.04 0.04
0.00 0.01 0.19 0.34 0.26 0.26 0.18 0.37 0.24 0.27 0.06 0.11 0.01 0.00 0.11 0.09 0.02 0.01 0.01 0.10 0.27 0.14 0.08 0.17 0.57 0.41 0.64 0.60 0.57 0.71 0.84 0.80 0.47 0.63 0.98 1.23 1.79 1.67 2.07 1.70 2.29 2.10 2.26 2.38 2.60 2.88 2.36 2.63 2.71 3.40 3.62 3.84 5.21 4.48 4.02 3.57 2.68 2.43 1.75 1.78 1.25 0.92 0.73 1.07 0.92 1.29 0.75 0.97 0.92 1.00 0.86 1.00 1.17 0.81 0.61 0.79 0.56 0.86 0.41 0.35 0.45 0.59 0.56 0.33 0.30 0.43 0.38 0.18 0.28 0.25 0.16 0.22 0.31 0.30 0.06 0.03 0.01
0.01 0.26 0.50 0.51 0.44 0.47 0.19 0.37 0.21 0.08 0.32 0.13 0.14 0.07 0.03 0.18 0.16 0.05 0.05 0.08 0.23 0.11 0.14 0.21 0.26 0.41 0.50 0.60 1.05 1.00 0.86 1.40 1.13 1.48 2.12 1.63 1.74 2.23 2.56 1.93 1.90 2.45 2.06 3.01 3.68 3.04 2.93 3.16 2.40 3.32 3.36 4.08 3.70 4.52 3.99 3.56 4.23 2.89 2.52 1.96 1.64 1.30 1.07 1.48 1.73 1.80 1.62 1.69 0.78 1.14 1.26 1.35 0.97 1.32 1.03 1.47 0.81 0.53 0.75 0.48 0.49 0.46 0.68 0.65 0.43 0.48 0.44 0.29 0.19 0.21 0.18 0.14 0.21 0.13 0.06 0.07 0.03
0.06 0.19 0.46 0.90 0.48 0.25 0.34 0.06 0.03 0.13 0.08 0.05 0.12 0.13 0.13 0.09 0.08 0.00 0.35 0.17 0.36 0.28 0.21 0.28 0.36 0.59 0.64 1.01 1.43 1.70 2.09 2.11 2.09 2.46 2.30 2.22 2.13 2.02 2.11 2.69 2.83 2.40 3.47 2.69 3.22 2.92 4.03 2.90 2.55 3.03 3.49 3.41 4.17 4.54 2.66 3.04 2.54 2.01 2.02 1.57 1.44 1.29 1.96 1.61 2.43 1.61 1.86 1.43 1.91 1.35 1.99 1.65 1.30 2.03 1.26 0.86 0.91 0.88 0.60 0.40 0.46 0.60 0.47 0.59 0.88 0.65 0.25 0.34 0.44 0.35 0.26 0.15 0.09 0.02 0.14 0.23 0.25
0.18 0.16 0.38 0.36 0.29 0.25 0.13 0.17 0.05 0.02 0.04 0.15 0.10 0.01 0.02 0.03 0.11 0.08 0.56 0.16 0.12 0.34 0.43 0.42 0.46 0.71 0.88 0.78 2.11 2.41 2.97 2.79 2.60 2.83 3.16 2.89 2.86 2.45 2.59 2.62 1.99 1.90 1.91 1.79 2.27 1.95 3.24 2.63 2.91 3.95 3.23 4.37 3.35 3.30 3.07 2.37 2.50 2.62 1.27 1.67 1.63 1.81 2.02 2.29 2.10 2.19 2.04 2.70 2.70 2.33 2.22 1.88 1.77 1.89 1.68 1.21 1.21 1.00 0.73 0.28 0.41 0.52 0.69 0.53 0.73 0.63 0.42 0.42 0.42 0.23 0.22 0.07 0.04 0.13 0.47 0.46 0.38
0.03 0.28 0.35 0.24 0.10 0.17 0.05 0.18 0.06 0.04 0.01 0.06 0.06 0.08 0.02 0.00 0.00 0.17 0.06 0.42 0.25 0.23 0.37 0.29 0.41 0.44 0.63 1.00 2.12 1.83 2.41 3.19 2.61 2.23 2.47 2.22 2.90 2.88 3.94 4.07 2.97 2.68 3.02 2.77 2.35 2.27 2.07 2.95 3.13 2.71 2.62 2.97 3.08 2.95 3.16 2.50 2.85 1.95 1.51 2.11 1.53 1.26 1.22 2.37 2.36 1.66 2.29 2.47 2.35 2.70 2.03 2.17 1.97 2.02 1.13 1.03 1.08 0.75 0.96 0.93 0.98 0.85 0.84 0.96 0.50 0.47 0.82 0.88 0.68 0.61 0.56 0.19 0.28 0.37 0.65 0.90 1.06
0.18 0.26 0.11 0.14 0.04 0.10 0.06 0.07 0.00 0.04 0.02 0.02 0.02 0.03 0.13 0.00 0.14 0.09 0.25 0.40 0.43 0.60 0.21 0.31 0.38 0.38 0.81 1.11 0.69 0.89 1.46 1.64 1.93 2.03 2.18 2.05 2.47 2.41 4.08 3.32 3.42 3.81 3.64 2.35 2.01 2.20 1.77 1.62 2.32 2.85 3.38 3.57 3.89 3.05 2.52 2.40 2.07 1.96 1.82 1.56 1.91 1.55 1.78 2.21 2.06 1.79 1.74 2.24 2.26 1.95 2.93 2.49 2.85 2.00 2.34 1.57 1.22 1.32 1.45 1.12 0.96 1.12 0.58 0.87 0.63 1.18 1.02 0.58 0.80 0.82 0.61 0.33 0.41 0.38 0.70 0.96 1.14
0.49 0.22 0.16 0.04 0.10 0.07 0.02 0.07 0.02 0.00 0.02 0.14 0.12 0.02 0.01 0.06 0.02 0.05 0.09 0.16 0.35 0.11 0.07 0.11 0.15 0.15 0.46 1.28 0.71 1.51 2.40 2.44 1.93 2.88 2.51 2.72 3.76 3.82 3.25 3.41 2.72 3.13 3.17 3.44 4.02 2.98 2.69 3.06 2.09 2.69 2.77 2.80 3.69 3.10 2.60 2.19 3.10 3.17 2.12 2.28 2.29 2.41 1.59 2.25 1.40 1.80 2.12 2.82 2.43 3.25 2.41 1.86 1.66 2.26 2.44 1.50 1.13 1.50 1.24 1.52 1.15 1.26 0.83 0.98 0.92 0.81 1.07 0.75 0.59 0.76 0.85 0.62 0.41 0.31 0.25 0.68 0.62
0.06 0.08 0.08 0.05 0.01 0.05 0.02 0.03 0.00 0.02 0.09 0.02 0.00 0.00 0.02 0.02 0.17 0.01 0.10 0.12 0.10 0.09 0.04 0.07 0.28 0.27 0.22 0.82 1.79 1.87 2.81 4.15 3.84 2.78 3.47 3.75 3.37 3.91 3.30 3.79 3.68 3.49 2.97 3.75 4.48 4.04 3.07 2.69 3.02 3.36 2.64 3.05 2.60 2.82 2.10 1.82 1.87 2.04 2.11 3.19 2.77 2.87 2.42 2.34 1.49 1.60 2.94 3.67 2.85 3.06 2.07 2.17 2.19 2.05 2.47 1.83 1.27 1.54 1.08 1.23 1.48 1.76 1.23 0.87 0.92 0.88 0.67 0.49 0.49 1.06 0.91 0.66 0.88 0.64 0.57 0.77 1.04
0.11 0.18 0.01 0.01 0.03 0.00 0.01 0.01 0.02 0.00 0.00 0.00 0.00 0.01 0.02 0.03 0.01 0.02 0.11 0.03 0.06 0.08 0.04 0.06 0.28 0.18 0.47 0.42 0.46 1.42 2.33 2.87 3.71 4.02 4.96 4.70 2.76 2.02 2.97 3.39 4.02 4.48 3.79 4.16 3.29 3.35 2.84 2.29 2.25 1.92 2.26 1.97 1.69 1.70 1.43 1.25 1.80 2.87 3.25 3.03 2.85 2.56 1.98 2.25 2.21 2.35 3.85 2.40 2.82 2.52 2.10 2.76 2.35 1.79 2.12 1.94 1.96 1.89 2.07 1.96 2.03 2.18 2.13 1.51 1.52 0.78 0.85 0.88 1.05 0.95 0.68 0.94 1.18 1.35 1.02 1.49 0.99
0.18 0.03 0.02 0.03 0.09 0.04 0.01 0.01 0.00 0.00 0.00 0.00 0.03 0.02 0.01 0.01 0.00 0.10 0.09 0.06 0.03 0.05 0.08 0.06 0.29 0.43 0.40 0.57 0.41 0.56 1.41 2.01 2.20 3.91 6.16 4.23 4.74 3.99 2.56 2.73 2.19 2.08 2.54 3.14 2.45 2.18 2.18 2.40 1.86 2.02 2.32 2.18 2.35 2.08 2.03 1.85 2.62 3.55 4.19 3.25 4.20 3.30 3.24 3.52 2.61 3.44 3.78 3.57 2.82 1.98 2.34 2.08 2.81 2.77 2.12 1.91 1.45 2.08 2.51 3.11 2.93 2.56 2.45 2.07 1.42 1.11 0.87 1.03 1.67 1.26 1.24 1.21 1.54 1.30 1.53 1.60 1.28
0.02 0.03 0.03 0.07 0.02 0.03 0.02 0.01 0.01 0.01 0.02 0.01 0.08 0.06 0.02 0.00 0.05 0.09 0.21 0.16 0.12 0.08 0.14 0.22 0.42 0.71 0.32 0.25 0.71 0.70 0.62 1.07 1.61 4.15 3.64 3.27 4.31 3.58 3.33 2.18 1.04 1.39 1.10 1.50 1.69 1.98 1.91 2.09 2.56 2.07 2.61 2.84 3.03 3.06 2.17 1.61 2.20 3.32 4.15 3.94 3.59 4.94 5.51 3.90 4.03 4.24 3.50 3.61 3.24 2.56 2.30 2.66 2.41 2.38 2.07 1.85 3.16 3.57 2.12 1.98 1.92 3.53 2.84 2.72 1.91 1.10 1.38 1.25 1.60 1.63 1.37 1.52 1.33 0.92 1.32 0.90 1.62
0.03 0.02 0.09 0.01 0.03 0.03 0.04 0.04 0.05 0.01 0.00 0.02 0.02 0.01 0.01 0.01 0.13 0.03 0.10 0.21 0.44 0.17 0.31 0.18 0.42 0.40 0.50 0.45 0.46 0.75 0.40 0.37 0.39 1.29 1.67 3.06 4.12 4.39 2.87 2.29 2.26 1.83 1.23 2.10 1.31 1.60 2.14 3.19 3.18 3.36 2.86 2.16 2.47 3.25 3.12 3.00 2.80 2.98 3.75 4.17 5.03 4.65 3.75 4.85 4.27 3.22 3.85 3.15 3.07 2.26 2.11 2.27 2.12 2.19 2.09 2.98 3.04 2.51 2.16 1.44 1.43 2.37 2.66 2.82 2.53 1.61 1.12 1.36 1.48 1.49 1.42 1.15 1.22 1.45 1.49 1.20 1.20
0.02 0.03 0.16 0.06 0.03 0.11 0.01 0.04 0.00 0.00 0.01 0.01 0.00 0.17 0.05 0.01 0.06 0.02 0.03 0.33 0.38 0.56 0.38 0.36 0.47 0.48 0.45 0.47 0.37 0.44 0.33 0.35 0.35 0.26 0.86 1.12 1.95 1.87 2.81 3.28 3.74 2.68 1.41 1.45 1.53 2.25 3.39 3.91 5.21 4.19 3.52 3.15 3.34 2.71 2.60 2.11 1.93 2.64 2.70 3.38 3.32 3.61 4.03 3.51 3.63 2.86 2.69 3.57 2.92 2.42 3.07 1.87 2.37 2.40 2.61 1.98 1.75 1.48 1.74 1.98 1.90 1.80 2.75 3.47 3.42 2.64 2.37 1.86 1.20 1.15 1.64 1.57 1.39 1.24 1.26 1.48 0.98
0.01 0.03 0.16 0.00 0.06 0.06 0.02 0.00 0.00 0.00 0.01 0.00 0.00 0.60 0.17 0.12 0.03 0.03 0.05 0.06 0.08 0.08 0.37 0.20 0.22 0.35 0.49 0.42 0.51 0.48 0.58 0.62 0.45 0.75 0.93 1.22 0.88 1.85 1.94 2.19 2.74 2.43 1.50 1.99 2.45 2.08 2.31 2.58 3.53 4.51 4.69 5.77 5.31 2.96 2.27 2.13 2.61 3.11 2.24 2.83 2.76 2.89 3.32 2.69 3.13 3.48 3.37 2.95 2.96 2.84 2.28 2.76 2.78 2.94 2.69 2.59 1.88 2.30 2.04 2.27 1.60 2.19 3.17 4.52 2.90 2.98 3.39 3.20 1.71 1.41 1.29 1.00 1.44 1.56 1.29 1.33 1.58
0.29 0.15 0.25 0.28 0.10 0.25 0.01 0.02 0.02 0.02 0.02 0.02 0.01 0.41 0.28 0.23 0.08 0.05 0.06 0.03 0.08 0.11 0.11 0.19 0.38 0.44 0.32 0.36 0.59 0.46 0.62 0.51 0.61 0.90 0.97 1.49 1.36 1.29 2.18 2.59 2.84 1.69 1.94 3.71 3.00 2.77 3.31 4.01 3.76 3.22 3.64 3.97 3.48 3.38 2.19 1.99 2.36 2.82 2.64 3.11 2.84 2.20 3.64 2.88 2.28 3.10 3.96 2.84 2.67 2.45 2.89 2.25 2.48 2.45 3.22 2.63 2.23 3.07 3.15 2.37 1.51 1.57 1.95 1.87 2.51 2.68 3.61 3.35 2.41 2.34 1.81 1.31 1.31 1.72 1.78 2.08 1.66
0.07 0.34 0.28 0.35 0.14 0.48 0.12 0.02 0.00 0.08 0.04 0.00 0.02 0.40 0.32 0.27 0.29 0.10 0.07 0.06 0.03 0.08 0.09 0.27 0.32 0.18 0.33 0.45 0.77 0.70 0.62 0.54 0.72 0.61 0.61 1.12 1.64 2.19 2.42 2.46 2.31 2.65 2.80 3.38 2.67 2.48 2.79 2.47 2.00 2.13 2.68 2.37 3.85 2.64 3.08 2.54 3.22 3.29 3.31 3.16 3.32 2.90 3.04 2.57 2.52 2.75 2.57 2.85 2.51 2.19 2.64 1.97 1.69 1.47 1.66 2.30 2.93 2.89 2.84 2.47 2.01 2.20 1.89 1.57 1.96 2.56 3.13 3.19 2.31 1.92 1.83 1.67 1.09 1.38 1.51 1.85 2.17
0.17 0.21 0.23 0.17 0.25 0.36 0.08 0.02 0.00 0.01 0.03 0.00 0.04 0.40 0.28 0.24 0.18 0.12 0.14 0.07 0.16 0.13 0.16 0.29 0.20 0.36 0.44 0.57 0.34 0.34 0.69 0.59 0.59 1.05 1.62 2.13 3.10 3.47 3.48 2.97 2.51 3.40 3.24 2.97 2.82 2.80 2.09 2.94 2.85 2.76 3.63 3.59 3.37 4.11 6.28 5.11 5.26 4.09 3.98 2.93 2.93 3.43 2.51 1.90 1.48 2.42 2.22 2.17 1.99 1.24 1.75 1.74 1.41 1.98 2.07 1.75 2.56 2.52 2.82 2.67 2.55 2.25 1.94 1.59 1.52 1.49 2.01 2.42 3.27 2.77 1.76 1.75 1.30 1.74 1.43 2.12 2.50
0.28 0.26 0.23 0.19 0.27 0.32 0.24 0.09 0.01 0.02 0.09 0.13 0.02 0.06 0.12 0.28 0.10 0.09 0.14 0.10 0.13 0.26 0.41 0.42 0.47 0.26 0.74 0.32 0.52 0.45 0.59 0.61 1.10 1.38 1.65 2.29 3.82 4.18 2.44 2.65 3.42 4.79 5.52 3.84 3.31 3.10 2.51 2.29 1.66 3.08 5.09 6.70 8.35 5.88 5.74 5.16 4.94 5.30 4.09 2.70 2.54 2.30 1.79 2.21 1.68 2.19 1.76 1.59 1.66 1.73 1.15 1.93 1.71 1.28 1.22 1.38 1.89 2.26 2.71 2.53 2.46 3.36 2.65 2.02 2.03 1.80 2.01 1.87 2.21 2.55 2.72 2.56 2.07 2.24 2.11 2.67 2.82
0.38 0.20 0.25 0.23 0.13 0.08 0.12 0.18 0.23 0.02 0.03 0.03 0.03 0.08 0.08 0.17 0.17 0.10 0.06 0.11 0.07 0.14 0.20 0.26 0.39 0.75 0.32 0.29 0.61 0.57 0.53 0.84 0.56 1.02 2.02 2.46 2.93 3.05 2.98 2.94 3.35 4.28 3.88 3.11 3.45 3.68 2.80 1.82 2.00 3.50 4.59 5.23 5.45 4.36 4.40 5.86 4.93 5.26 4.12 2.98 2.64 2.80 2.93 3.67 3.72 2.72 1.55 2.19 1.96 1.46 1.29 1.42 1.49 1.27 1.01 1.39 1.68 1.70 1.60 1.95 2.26 2.90 3.05 2.99 2.80 2.22 1.78 1.39 1.79 2.44 2.85 3.21 2.77 3.18 3.48 2.62 3.03
0.07 0.05 0.07 0.05 0.12 0.29 0.28 0.10 0.08 0.07 0.11 0.05 0.07 0.11 0.16 0.20 0.12 0.14 0.11 0.11 0.11 0.13 0.24 0.42 0.30 0.37 0.71 0.77 0.84 0.63 0.47 0.61 1.02 1.86 1.95 2.45 3.26 2.63 3.32 3.59 4.62 2.64 2.43 2.37 2.68 2.46 2.09 2.28 1.35 1.96 3.64 4.61 4.99 5.27 7.08 6.74 6.39 4.83 4.45 4.07 3.21 2.72 3.42 3.03 2.31 2.18 1.46 1.58 1.78 1.76 1.72 1.54 1.08 1.15 0.97 1.60 2.39 1.34 1.72 2.05 2.30 1.90 2.98 3.72 2.84 2.37 1.64 1.81 1.91 2.44 2.12 2.84 3.37 3.14 2.53 2.75 2.83
0.01 0.02 0.05 0.06 0.06 0.10 0.03 0.08 0.02 0.01 0.05 0.02 0.07 0.07 0.06 0.15 0.13 0.14 0.12 0.11 0.13 0.21 0.38 0.32 0.44 0.47 0.40 0.48 0.48 0.71 0.85 0.90 1.35 2.41 2.13 2.38 2.97 4.07 3.30 2.73 2.56 2.22 2.59 2.23 2.57 2.73 2.64 2.52 1.75 2.04 2.18 3.87 4.81 4.43 6.05 6.98 6.32 5.58 4.60 4.02 3.47 3.42 3.12 2.64 2.63 2.88 2.32 1.52 1.95 2.34 1.99 1.52 1.65 1.77 1.02 1.17 1.07 1.07 1.52 1.62 2.96 3.48 1.86 2.72 2.25 2.47 2.64 2.28 2.29 2.63 2.39 2.43 3.29 2.79 2.73 2.67 3.29
0.07 0.08 0.05 0.06 0.10 0.32 0.05 0.03 0.05 0.03 0.06 0.15 0.01 0.03 0.02 0.08 0.15 0.36 0.07 0.10 0.09 0.09 0.18 0.28 0.58 0.67 0.49 0.34 0.40 0.66 1.31 0.94 1.70 2.52 3.40 4.35 3.83 3.72 2.87 1.55 1.93 1.85 1.95 2.34 2.03 1.79 1.90 2.26 2.32 2.41 3.10 2.94 2.82 2.21 2.71 3.79 3.78 3.62 3.30 4.46 3.83 3.61 3.30 3.04 2.48 2.42 2.11 2.46 2.61 1.89 1.62 1.38 1.47 1.44 1.10 1.31 1.01 1.03 1.51 1.39 2.24 2.13 2.24 2.38 1.99 2.04 2.61 3.29 3.35 3.09 2.55 3.83 2.74 3.24 3.40 2.84 3.51
0.04 0.09 0.09 0.03 0.19 0.08 0.01 0.01 0.01 0.06 0.05 0.17 0.03 0.08 0.06 0.21 0.13 0.10 0.13 0.09 0.13 0.13 0.16 0.26 0.25 0.39 0.45 0.36 0.42 0.72 1.15 1.28 1.81 2.52 2.32 3.12 3.73 2.20 1.72 1.87 2.55 2.57 2.77 2.91 4.34 3.67 2.25 1.42 1.94 2.34 3.10 2.01 1.49 2.15 1.77 2.31 2.11 2.51 2.86 3.35 4.09 4.27 4.32 3.34 2.83 2.53 2.53 2.81 2.43 2.26 1.37 1.27 1.03 1.06 1.06 0.77 0.97 1.42 1.55 1.78 1.58 2.00 2.22 2.56 1.97 1.97 1.81 2.03 2.34 2.61 2.54 2.02 2.61 2.84 2.83 4.08 3.86
0.02 0.11 0.15 0.22 0.16 0.14 0.53 0.10 0.08 0.07 0.07 0.11 0.08 0.06 0.38 0.19 0.31 0.36 0.27 0.23 0.18 0.24 0.09 0.51 0.32 0.33 0.55 0.53 0.89 0.83 0.82 1.55 3.05 2.79 2.47 3.36 2.95 2.82 2.12 1.52 2.63 1.27 1.44 1.82 2.49 1.83 2.94 2.72 2.50 1.92 1.41 1.49 2.35 1.65 1.83 1.97 2.09 2.07 2.27 2.60 3.78 3.18 3.29 3.41 2.82 3.31 3.06 2.78 2.81 1.94 2.10 1.82 1.28 1.39 1.19 1.12 0.89 1.10 1.38 1.38 1.85 1.44 1.71 2.11 2.14 2.41 2.11 1.91 1.56 2.44 2.50 2.22 2.45 2.94 2.46 3.78 3.16
0.05 0.05 0.08 0.08 0.07 0.18 0.06 0.27 0.06 0.01 0.01 0.01 0.04 0.14 0.17 0.15 0.16 0.17 0.08 0.05 0.16 0.13 0.17 0.21 0.33 0.48 1.11 0.98 1.08 0.95 0.78 0.76 1.67 2.20 2.68 3.21 2.45 2.77 1.25 2.01 2.59 2.00 1.57 1.80 1.86 2.17 2.71 1.63 1.94 1.64 1.75 1.94 1.88 1.88 2.21 2.07 3.88 2.60 2.80 3.02 3.19 3.74 3.50 3.43 2.85 2.65 2.86 2.79 2.93 2.08 1.93 1.43 1.27 1.44 1.49 1.33 0.73 0.76 1.21 1.65 2.16 1.61 1.23 1.45 1.54 1.82 2.14 1.85 2.00 1.29 1.27 1.64 1.93 2.72 2.48 3.02 3.45
0.09 0.03 0.01 0.02 0.02 0.03 0.02 0.03 0.06 0.22 0.31 0.04 0.14 0.54 0.80 0.21 0.21 0.14 0.15 0.19 0.20 0.19 0.15 0.36 0.46 0.19 0.46 0.46 0.56 0.56 0.52 1.70 1.83 2.49 3.17 2.04 3.14 3.14 2.04 2.84 2.82 1.64 1.99 2.54 1.95 3.03 3.07 3.03 2.22 2.25 3.35 3.07 1.89 1.06 1.28 1.33 2.27 2.18 2.23 2.15 2.17 1.90 2.29 2.47 2.10 2.37 1.81 1.95 2.40 1.83 1.90 1.54 1.75 1.78 2.02 1.69 0.74 1.18 1.71 1.66 1.59 1.94 1.85 1.12 1.17 1.33 1.27 1.91 2.01 2.44 1.66 1.28 1.55 2.14 2.12 2.38 3.00
0.24 0.26 0.03 0.03 0.03 0.02 0.03 0.06 0.09 0.45 0.49 0.67 0.05 0.45 0.60 0.18 0.34 0.21 0.10 0.27 0.32 0.40 0.28 0.44 0.57 0.41 0.30 0.38 0.77 0.94 0.99 1.73 2.63 2.76 2.34 3.17 5.18 3.54 3.46 3.88 1.88 0.97 1.71 1.09 1.47 1.98 3.23 3.67 2.46 2.93 1.98 1.21 1.26 2.39 1.68 1.91 2.30 1.60 1.31 1.74 1.57 1.41 1.39 1.60 2.23 1.75 2.14 2.08 2.12 2.21 2.11 2.18 2.20 2.10 1.76 1.55 1.32 1.53 1.59 1.62 1.30 1.00 1.40 1.92 1.69 1.23 1.11 1.14 1.36 1.74 1.82 2.17 1.82 2.13 2.59 2.62 2.02
0.29 0.07 0.06 0.04 0.04 0.03 0.09 0.09 0.12 0.32 0.02 0.03 0.04 0.12 0.52 0.56 0.46 0.19 0.19 0.14 0.32 0.52 0.47 0.27 0.42 0.44 0.55 0.50 0.59 0.54 1.28 1.94 1.62 1.64 2.37 3.78 3.91 2.68 2.98 1.64 0.80 1.21 0.67 1.51 3.01 2.79 3.89 3.32 3.14 1.63 1.22 0.92 1.03 1.04 1.16 2.56 2.36 1.99 1.87 2.02 2.38 2.64 1.50 1.35 1.51 1.67 1.97 2.95 2.97 2.39 2.40 2.92 2.22 2.32 2.62 1.88 2.14 1.80 2.36 1.68 1.31 1.29 1.17 1.51 1.26 1.26 1.14 0.93 1.16 1.70 1.87 2.00 2.55 2.52 2.79 2.40 1.86
0.15 0.05 0.05 0.09 0.06 0.10 0.04 0.05 0.13 0.22 0.18 0.46 0.26 0.19 0.33 0.47 0.53 0.17 0.27 0.22 0.30 0.24 0.12 0.37 0.54 0.56 0.70 0.70 0.51 0.58 0.81 0.87 1.58 1.64 3.01 2.43 1.47 3.19 2.70 1.99 1.25 1.15 2.91 2.09 1.04 1.82 3.75 3.14 1.52 1.52 2.06 2.01 1.35 1.07 1.13 1.01 1.34 1.10 0.83 0.70 0.81 1.24 1.74 2.23 2.37 2.14 1.87 1.90 2.31 2.24 2.02 2.59 3.16 3.48 2.83 2.56 2.48 2.26 2.40 1.56 1.47 1.53 1.57 1.51 1.00 1.53 2.06 1.31 1.43 1.39 1.38 1.65 1.95 2.27 3.54 3.49 2.92
0.03 0.03 0.05 0.03 0.03 0.03 0.04 0.12 0.12 0.30 0.25 0.47 0.33 0.30 0.43 0.46 0.46 0.38 0.40 0.19 0.50 0.71 0.65 0.79 0.71 0.40 0.84 0.42 0.61 0.48 0.90 1.22 1.28 2.61 2.64 1.17 2.25 2.45 2.14 1.45 1.16 2.58 2.80 2.04 1.69 1.53 1.31 1.52 2.14 3.02 3.46 3.37 1.93 1.71 1.42 1.67 1.57 1.20 1.19 0.77 0.68 0.85 0.85 1.12 1.34 1.81 1.70 1.94 1.53 2.59 2.99 2.84 2.92 3.49 4.11 3.46 2.75 2.72 2.46 1.99 2.22 1.96 1.90 1.43 1.17 2.21 2.13 1.73 1.59 1.36 1.43 1.33 2.05 3.03 2.82 2.92 2.62
0.13 0.07 0.04 0.17 0.09 0.12 0.06 0.19 0.15 0.32 0.50 0.22 0.14 0.37 0.64 0.52 0.51 0.55 0.58 0.66 0.40 0.64 0.48 0.44 0.35 0.49 0.46 0.47 0.58 0.62 0.76 0.81 1.69 3.13 1.86 1.96 3.28 2.57 2.56 2.72 2.90 3.89 3.74 2.77 1.54 0.81 1.24 1.23 1.66 1.83 1.98 1.96 1.44 1.45 1.35 2.10 2.57 1.64 0.84 0.98 0.99 0.78 0.73 0.71 1.04 1.10 1.77 1.64 1.36 2.23 2.38 2.44 3.29 3.40 3.65 2.67 2.89 2.15 1.86 1.55 1.27 1.43 1.72 2.05 2.33 2.84 1.74 1.97 1.64 1.41 1.38 1.77 2.33 1.98 2.23 2.47 2.25
0.06 0.21 0.22 0.21 0.49 0.19 0.23 0.35 0.40 0.60 0.55 0.26 0.30 0.12 0.52 0.43 0.95 0.39 0.58 0.84 0.52 0.44 0.43 0.22 0.41 0.31 0.23 0.31 0.43 0.65 0.70 0.86 1.46 1.17 0.57 1.56 3.16 2.05 2.47 2.69 3.25 2.72 2.45 2.04 1.37 1.02 0.90 0.79 0.62 1.36 2.60 2.03 3.68 3.37 2.61 1.99 1.62 1.49 1.34 1.38 1.34 1.51 1.02 1.08 1.15 1.36 0.93 1.28 1.35 1.70 2.22 3.03 3.50 1.92 2.41 2.52 2.02 1.97 1.63 1.44 1.10 1.15 1.10 1.35 2.23 2.49 2.08 1.29 1.38 2.04 2.25 2.02 1.95 1.96 2.12 2.48 2.47
0.09 0.25 0.51 0.50 0.89 0.59 0.72 0.57 0.70 0.84 0.51 0.32 0.10 0.22 0.22 0.52 0.71 0.34 0.37 0.33 0.40 0.34 0.24 0.24 0.15 0.20 0.41 0.31 0.35 0.52 0.61 0.87 1.51 1.64 1.66 2.05 1.55 1.74 1.48 1.83 1.71 2.50 2.85 2.65 1.80 1.78 1.05 1.13 0.75 1.21 2.83 2.52 1.33 0.92 1.18 1.42 2.29 1.69 1.89 1.59 1.47 1.31 1.22 0.95 0.91 0.96 1.02 1.01 1.10 1.52 1.70 3.22 2.14 1.96 1.54 1.49 1.66 1.58 1.62 1.42 1.49 1.27 1.28 1.85 3.12 1.85 1.78 1.72 2.12 2.27 2.42 2.46 2.10 1.90 1.17 1.56 2.00
0.11 0.25 0.46 0.62 0.96 0.72 0.47 0.51 0.35 0.40 0.25 0.15 0.34 0.18 0.25 0.53 0.43 0.19 0.30 0.40 0.33 0.38 0.22 0.25 0.21 0.29 0.24 0.28 0.54 0.99 1.46 1.80 1.55 1.41 1.54 1.97 1.67 1.89 1.68 2.09 2.26 2.81 1.79 2.54 2.23 3.20 2.48 1.65 1.64 1.93 1.87 1.32 0.92 1.05 1.06 1.06 1.39 1.62 2.67 2.52 1.97 1.64 2.23 2.41 1.92 1.33 1.04 1.17 0.98 0.65 1.33 1.46 1.38 1.92 1.52 1.54 1.46 1.61 1.32 1.71 1.48 1.65 1.35 2.09 2.39 1.74 1.57 2.27 2.63 1.98 1.83 1.58 1.62 1.64 2.04 1.89 1.97
0.17 0.04 0.36 0.52 0.58 0.99 0.52 0.54 0.52 0.37 0.53 0.32 0.22 0.09 0.44 0.51 1.60 0.18 0.23 0.27 0.33 0.27 0.35 0.35 0.32 0.36 0.35 0.64 0.68 0.48 0.46 0.69 0.58 0.95 1.67 1.52 1.21 1.24 1.94 2.21 2.65 2.19 2.02 2.31 2.03 1.87 3.10 3.13 2.30 3.09 3.02 1.75 1.51 1.42 1.58 1.38 1.54 1.80 1.45 1.84 1.08 1.31 1.48 1.26 1.17 1.81 1.89 2.05 1.97 1.15 0.92 1.06 1.46 1.46 1.32 1.41 1.29 2.00 1.74 1.52 1.45 1.45 1.55 1.66 1.68 1.73 1.90 2.98 2.28 3.21 1.98 1.93 1.67 1.68 1.91 2.11 2.01
0.10 0.14 0.12 0.39 0.82 0.30 0.66 0.56 0.32 0.45 0.29 0.21 0.35 0.15 0.52 1.10 0.64 0.24 0.18 0.11 0.16 0.12 0.11 0.14 0.24 0.45 0.37 0.37 0.23 0.27 0.36 0.36 0.44 0.61 0.71 0.73 1.39 1.55 2.22 3.05 2.73 2.17 1.71 2.02 1.75 2.37 2.26 1.93 2.52 2.73 3.08 2.64 2.70 1.88 1.40 1.20 1.16 1.30 1.25 0.78 0.83 1.10 0.78 0.96 0.84 0.93 1.13 1.08 0.88 0.86 1.03 1.51 1.74 1.85 2.57 1.75 1.55 1.58 1.72 1.81 1.68 1.72 1.40 1.38 1.48 1.68 2.20 2.28 2.15 2.17 1.78 1.53 1.67 1.22 1.48 1.65 1.84
0.70 0.14 0.47 0.35 0.16 0.24 0.43 0.26 0.13 0.15 0.32 0.45 0.22 0.41 0.45 0.20 0.41 0.36 0.41 0.25 0.19 0.28 0.30 0.34 0.34 0.36 0.26 0.28 0.31 0.42 0.30 0.32 0.22 0.48 0.98 1.46 1.29 1.86 2.03 1.24 1.92 1.46 1.64 1.45 2.00 1.79 1.77 1.71 2.52 2.52 2.98 3.80 3.76 2.44 2.03 1.04 2.10 2.52 1.60 1.61 0.85 0.70 0.81 0.90 0.96 0.81 0.92 1.02 1.91 1.46 1.52 1.39 1.74 1.32 1.41 0.90 1.05 0.84 1.47 1.12 1.39 2.11 1.11 1.15 1.64 2.08 2.05 1.77 1.76 2.38 1.58 1.97 1.30 0.95 1.30 1.03 1.41
0.50 0.45 0.43 0.10 0.09 0.21 0.38 0.71 0.35 0.29 0.32 0.34 0.22 0.39 0.57 0.38 1.51 0.44 0.50 0.24 0.19 0.28 0.35 0.38 0.38 0.36 0.39 0.64 0.46 0.51 0.57 0.40 0.57 1.27 1.43 1.67 1.82 1.32 1.29 1.43 1.40 1.45 1.77 2.02 1.33 1.05 1.64 2.43 3.35 4.90 5.32 7.18 4.97 3.45 2.35 2.98 3.23 2.75 3.00 1.95 1.39 0.82 0.54 0.60 0.73 0.81 1.30 2.61 1.74 1.28 1.40 1.83 1.83 1.72 1.28 0.92 0.76 0.80 0.99 0.97 1.38 1.67 1.53 1.73 2.45 2.63 2.65 2.22 1.98 1.68 1.80 1.86 1.80 2.79 2.38 1.42 1.34
0.45 0.45 0.34 0.38 0.84 0.76 0.58 0.59 0.61 0.40 0.17 0.26 0.40 0.30 0.36 0.48 1.07 0.44 0.42 0.41 0.30 0.29 0.34 0.37 0.35 0.44 0.47 0.46 0.88 1.11 1.27 1.24 1.26 1.31 1.27 1.48 1.35 1.32 1.61 1.61 1.94 2.92 1.73 1.73 1.29 2.22 2.07 1.74 3.23 3.01 4.49 5.63 4.95 5.12 4.63 4.34 3.31 2.15 2.03 1.61 1.04 1.08 0.78 0.83 1.05 1.39 2.24 1.74 1.31 1.87 1.53 1.45 1.85 1.50 1.10 1.26 0.86 0.60 0.82 1.02 1.53 1.52 1.55 1.83 2.51 2.69 2.58 2.53 2.76 2.36 1.88 1.67 1.82 1.91 1.75 1.42 1.19
0.28 0.32 0.41 0.36 0.52 0.64 0.75 0.58 0.45 0.38 0.74 0.31 0.50 0.28 0.81 0.47 1.05 0.64 0.41 0.26 0.36 0.28 0.30 0.42 0.42 0.56 0.75 0.59 0.69 0.84 1.40 1.61 1.04 1.16 1.00 1.29 1.33 1.58 1.77 1.55 1.50 1.53 1.37 1.22 1.79 1.63 1.36 1.92 2.99 3.63 3.36 4.75 4.53 4.86 4.03 2.54 2.57 2.44 1.97 2.05 2.77 1.57 1.76 1.17 1.61 1.96 1.88 1.69 3.34 2.63 1.97 2.35 1.06 0.92 0.64 1.54 1.58 0.82 1.09 1.26 1.08 1.22 1.09 1.51 1.66 2.99 2.42 2.52 2.34 1.89 1.93 2.06 2.06 1.89 1.95 1.84 2.00
0.88 0.63 0.54 0.56 0.53 0.61 0.36 0.73 0.46 0.65 0.83 0.66 0.58 0.46 0.85 1.03 0.58 0.44 0.57 0.35 0.31 0.28 0.59 0.82 0.77 1.13 1.41 1.55 1.55 1.57 1.58 1.14 1.23 1.46 1.19 2.39 4.08 4.04 2.49 2.30 2.16 1.76 1.39 2.08 2.28 1.95 1.37 2.27 1.98 2.14 2.52 2.55 2.51 3.65 3.22 3.32 2.85 2.54 2.27 2.05 1.63 2.19 1.62 1.36 1.22 1.38 2.87 2.14 2.52 2.16 3.36 2.07 1.39 0.91 1.63 1.30 0.93 1.05 1.37 1.47 1.26 1.07 1.09 1.32 1.34 1.59 1.65 1.41 2.12 1.79 1.83 1.90 2.09 2.04 2.05 1.92 1.56
0.71 0.73 0.78 0.67 1.02 1.20 1.11 0.97 0.20 0.48 0.65 0.67 0.59 0.78 1.03 1.09 0.42 0.47 0.54 0.69 0.44 0.40 0.59 0.74 0.86 0.48 0.51 0.64 0.44 0.45 0.80 1.10 1.64 1.57 1.25 1.18 2.43 2.47 2.51 2.12 1.72 1.73 2.79 3.08 2.14 2.17 1.81 1.52 1.08 1.89 2.45 2.39 2.49 3.31 3.07 2.78 2.31 2.11 1.81 2.29 2.48 2.52 2.39 1.63 1.06 1.56 3.05 2.38 2.31 1.60 2.22 1.98 1.80 1.13 1.56 1.23 1.06 0.85 1.07 1.33 1.79 2.20 1.93 1.81 1.41 1.02 1.12 1.27 1.40 1.31 1.84 2.33 1.87 1.82 2.58 1.74 1.68